Starlink 32091

operational
NORAD ID: 59684 Int'l Des: 2024-086 Owner: SPXS Country: US Constellation: starlink
LEOCIRCULAR

Starlink 32091について

説明を読み込み中...

リアルタイム位置

3D地球を読み込み中...

次回通過

高度履歴

Altitude vs Time

uPlot chart will show altitude changes over time

軌道要素

1 59684U 24086C 26034.98156846 -.00000721 00000-0 -16666-4 0 9995
2 59684 42.9994 242.7644 0001443 277.4792 82.5896 15.27575812 99054
Epoch: Feb 3, 2026 • Age: 11 hours

現在のステータス

高度 487.1 km
速度 7.63 km/s
衛星直下点 42.98°N, 25.37°E
打ち上げ日 May 8, 2024
運用期間 1.7 years
タイプ internet

技術仕様

分類 Payload
質量 730.00 kg
乾燥質量 700.00 kg
総質量 730.00 kg
長さ 0.30 m
直径 4.10 m
スパン 29.00 m
形状 Box + pan
製造者 SPXS
バスタイプ Starlink V2M
フェーズステータス In Orbit
所有者/国 SPXS/US

大規模コンステレーション

Loading constellations...